When you browse on this site, cookies collect data to enhance your experience and personalize the content and advertising you see.
Visit our Privacy Policy to learn more. By continuing to use the site, you agree to this use of cookies and data.
  • In Romania
  • List of Countries
  • For 7 days
  • Water Temperature
  • Satellite Maps
  • Weather Map
  • Weather Widgets
  • user-avatar
    Login

    Hourly Weather Modliszow

    Today, 19 December, Wednesday

    Time Temperature Precipitation Wind Pressure Humidity
    00:00 -3°C° 0 mm 2 mps 727 mmHg 92%
    01:00 -3°C° 0 mm 2 mps 726 mmHg 91%
    02:00 -4°C° 0 mm 3 mps 726 mmHg 91%
    03:00 -4°C° 0 mm 3 mps 726 mmHg 90%
    04:00 -4°C° 0 mm 3 mps 726 mmHg 90%
    05:00 -4°C° 0 mm 3 mps 725 mmHg 89%
    06:00 -4°C° 0 mm 3 mps 725 mmHg 89%
    07:00 -5°C° 0 mm 3 mps 725 mmHg 90%
    08:00 -4°C° 0 mm 3 mps 725 mmHg 87%
    09:00 -3°C° 0 mm 4 mps 725 mmHg 84%
    10:00 -4°C° 0 mm 5 mps 725 mmHg 81%
    11:00 -2°C° 0 mm 5 mps 724 mmHg 79%
    12:00 -2°C° 0 mm 5 mps 724 mmHg 78%
    13:00 -2°C° 0 mm 5 mps 724 mmHg 77%
    14:00 -2°C° 0 mm 5 mps 724 mmHg 78%
    15:00 -4°C° 0 mm 5 mps 723 mmHg 79%
    16:00 -3°C° 0 mm 4 mps 723 mmHg 81%
    17:00 -3°C° 0 mm 4 mps 723 mmHg 81%
    18:00 -3°C° 0 mm 4 mps 723 mmHg 81%
    19:00 -3°C° 0 mm 4 mps 723 mmHg 81%
    20:00 -3°C° 0.1 mm 4 mps 722 mmHg 81%
    21:00 -3°C° 0.1 mm 4 mps 722 mmHg 81%
    22:00 -3°C° 0.1 mm 4 mps 722 mmHg 82%
    23:00 -4°C° 0.3 mm 4 mps 722 mmHg 82%

    Tomorrow, 20 December, Thursday

    Time Temperature Precipitation Wind Pressure Humidity
    00:00 -4°C° 0.3 mm 4 mps 722 mmHg 82%
    01:00 -4°C° 0.3 mm 4 mps 722 mmHg 82%
    02:00 -4°C° 0.1 mm 3 mps 722 mmHg 83%
    03:00 -4°C° 0.1 mm 3 mps 722 mmHg 83%
    04:00 -5°C° 0.1 mm 3 mps 722 mmHg 84%
    05:00 -5°C° 0.1 mm 3 mps 722 mmHg 84%
    06:00 -5°C° 0.1 mm 3 mps 722 mmHg 85%
    07:00 -5°C° 0.1 mm 3 mps 722 mmHg 85%
    08:00 -5°C° 0 mm 3 mps 722 mmHg 84%
    09:00 -4°C° 0 mm 3 mps 722 mmHg 83%
    10:00 -4°C° 0 mm 4 mps 722 mmHg 82%
    11:00 -4°C° 0 mm 3 mps 722 mmHg 83%
    12:00 -2°C° 0 mm 3 mps 722 mmHg 83%
    13:00 -2°C° 0 mm 3 mps 722 mmHg 83%
    14:00 -2°C° 0.1 mm 3 mps 722 mmHg 85%
    15:00 -2°C° 0.1 mm 3 mps 722 mmHg 86%
    16:00 -2°C° 0.1 mm 3 mps 722 mmHg 88%
    17:00 -2°C° 0.1 mm 3 mps 722 mmHg 88%
    18:00 -1°C° 0.1 mm 3 mps 722 mmHg 89%
    19:00 -1°C° 0.1 mm 3 mps 722 mmHg 89%
    20:00 -1°C° 0 mm 3 mps 722 mmHg 89%
    21:00 -2°C° 0 mm 4 mps 722 mmHg 89%
    22:00 -2°C° 0 mm 4 mps 722 mmHg 89%
    23:00 -2°C° 0 mm 4 mps 722 mmHg 90%

    Day after tomorrow, 21 December, Friday

    Time Temperature Precipitation Wind Pressure Humidity
    00:00 -1°C° 0 mm 4 mps 722 mmHg 90%
    01:00 -1°C° 0 mm 4 mps 722 mmHg 90%
    02:00 -1°C° 0 mm 4 mps 722 mmHg 89%
    03:00 -1°C° 0 mm 4 mps 722 mmHg 89%
    04:00 -1°C° 0 mm 4 mps 721 mmHg 89%
    05:00 -1°C° 0.1 mm 4 mps 721 mmHg 89%
    06:00 -1°C° 0.1 mm 4 mps 721 mmHg 88%
    07:00 -1°C° 0.1 mm 5 mps 721 mmHg 88%
    08:00 -1°C° 0.1 mm 5 mps 720 mmHg 87%
    09:00 0°C° 0.1 mm 5 mps 720 mmHg 86%
    10:00 0°C° 0.1 mm 5 mps 720 mmHg 86%
    11:00 0°C° 0.3 mm 5 mps 719 mmHg 86%
    12:00 0°C° 0.3 mm 5 mps 718 mmHg 85%
    13:00 0°C° 0.3 mm 5 mps 718 mmHg 85%
    14:00 -1°C° 0.4 mm 6 mps 717 mmHg 85%
    15:00 -1°C° 0.4 mm 6 mps 716 mmHg 84%
    16:00 -1°C° 0.4 mm 6 mps 715 mmHg 83%
    17:00 -1°C° 0.8 mm 7 mps 715 mmHg 84%
    18:00 0°C° 0.8 mm 7 mps 714 mmHg 84%
    19:00 0°C° 0.8 mm 8 mps 714 mmHg 85%
    20:00 +1°C° 0.8 mm 8 mps 713 mmHg 85%
    21:00 +2°C° 0.8 mm 7 mps 713 mmHg 86%
    22:00 +3°C° 0.8 mm 7 mps 712 mmHg 87%
    23:00 +3°C° 0.1 mm 7 mps 712 mmHg 87%

    22 December, Saturday

    Time Temperature Precipitation Wind Pressure Humidity
    00:00 +4°C° 0.1 mm 7 mps 713 mmHg 87%
    01:00 +4°C° 0.1 mm 7 mps 713 mmHg 87%
    02:00 +3°C° 0 mm 7 mps 713 mmHg 85%
    03:00 +3°C° 0 mm 6 mps 713 mmHg 84%
    04:00 +2°C° 0 mm 6 mps 713 mmHg 83%
    05:00 +2°C° 0 mm 6 mps 713 mmHg 84%
    06:00 +2°C° 0 mm 5 mps 713 mmHg 84%
    07:00 +2°C° 0 mm 5 mps 714 mmHg 84%
    08:00 +2°C° 0.3 mm 5 mps 714 mmHg 85%
    09:00 +3°C° 0.3 mm 5 mps 714 mmHg 86%
    10:00 +3°C° 0.3 mm 5 mps 714 mmHg 86%
    11:00 +3°C° 0.2 mm 6 mps 714 mmHg 85%
    12:00 +4°C° 0.2 mm 6 mps 714 mmHg 83%
    13:00 +4°C° 0.2 mm 7 mps 714 mmHg 82%
    14:00 +4°C° 0 mm 7 mps 714 mmHg 80%
    15:00 +4°C° 0 mm 7 mps 714 mmHg 79%
    16:00 +4°C° 0 mm 7 mps 714 mmHg 78%
    17:00 +4°C° 0.1 mm 7 mps 714 mmHg 79%
    18:00 +4°C° 0.1 mm 8 mps 715 mmHg 80%
    19:00 +2°C° 0.1 mm 8 mps 715 mmHg 81%
    20:00 +2°C° 0.1 mm 8 mps 716 mmHg 81%
    21:00 +2°C° 0.1 mm 8 mps 717 mmHg 81%
    22:00 +2°C° 0.1 mm 8 mps 717 mmHg 80%
    23:00 +1°C° 0.1 mm 8 mps 718 mmHg 81%

    23 December, Sunday

    Time Temperature Precipitation Wind Pressure Humidity
    00:00 +2°C° 0.1 mm 7 mps 719 mmHg 82%
    01:00 +2°C° 0.1 mm 6 mps 719 mmHg 83%
    02:00 +2°C° 0.2 mm 5 mps 720 mmHg 85%
    03:00 +1°C° 0.2 mm 5 mps 720 mmHg 87%
    04:00 +1°C° 0.2 mm 4 mps 721 mmHg 88%
    05:00 +1°C° 0.1 mm 4 mps 721 mmHg 89%
    06:00 +1°C° 0.1 mm 4 mps 721 mmHg 89%
    07:00 +2°C° 0.1 mm 3 mps 721 mmHg 89%
    08:00 +1°C° 0.2 mm 4 mps 722 mmHg 88%
    09:00 +1°C° 0.2 mm 4 mps 722 mmHg 87%
    10:00 +1°C° 0.2 mm 4 mps 722 mmHg 85%
    11:00 +3°C° 0.1 mm 4 mps 722 mmHg 83%
    12:00 +2°C° 0.1 mm 5 mps 722 mmHg 81%
    13:00 +2°C° 0.1 mm 5 mps 722 mmHg 78%
    14:00 +2°C° 0 mm 5 mps 723 mmHg 80%
    15:00 +1°C° 0 mm 4 mps 723 mmHg 81%
    16:00 +1°C° 0 mm 4 mps 723 mmHg 83%
    17:00 +2°C° 0 mm 3 mps 723 mmHg 84%
    18:00 +1°C° 0 mm 3 mps 723 mmHg 85%
    19:00 +1°C° 0 mm 3 mps 723 mmHg 86%
    20:00 +1°C° 0 mm 3 mps 723 mmHg 87%
    21:00 +1°C° 0 mm 3 mps 723 mmHg 88%
    22:00 0°C° 0 mm 3 mps 723 mmHg 89%
    23:00 -1°C° 0 mm 4 mps 723 mmHg 88%

    24 December, Monday

    Time Temperature Precipitation Wind Pressure Humidity
    00:00 -1°C° 0 mm 4 mps 723 mmHg 88%
    01:00 -1°C° 0 mm 4 mps 723 mmHg 88%
    02:00 -1°C° 0 mm 4 mps 723 mmHg 87%
    03:00 -1°C° 0 mm 5 mps 723 mmHg 87%
    04:00 -1°C° 0 mm 5 mps 723 mmHg 87%
    05:00 0°C° 0 mm 5 mps 723 mmHg 86%
    06:00 0°C° 0 mm 5 mps 723 mmHg 86%
    07:00 0°C° 0 mm 5 mps 723 mmHg 86%
    08:00 0°C° 0.1 mm 5 mps 724 mmHg 86%
    09:00 0°C° 0.1 mm 5 mps 724 mmHg 86%
    10:00 0°C° 0.1 mm 4 mps 725 mmHg 86%
    11:00 +1°C° 0.1 mm 5 mps 725 mmHg 84%
    12:00 +1°C° 0.1 mm 5 mps 726 mmHg 82%
    13:00 +1°C° 0.1 mm 5 mps 726 mmHg 80%
    14:00 +1°C° 0.1 mm 4 mps 727 mmHg 81%
    15:00 0°C° 0.1 mm 4 mps 727 mmHg 83%
    16:00 +1°C° 0.1 mm 3 mps 727 mmHg 85%
    17:00 +1°C° 0 mm 3 mps 728 mmHg 86%
    18:00 0°C° 0 mm 3 mps 728 mmHg 88%
    19:00 +1°C° 0 mm 2 mps 728 mmHg 89%
    20:00 0°C° 0.1 mm 3 mps 729 mmHg 89%
    21:00 0°C° 0.1 mm 3 mps 729 mmHg 89%
    22:00 0°C° 0.1 mm 3 mps 729 mmHg 89%
    23:00 0°C° 0 mm 3 mps 729 mmHg 89%
    Show more